STARLINK-32775 (62742 NORAD) Tracking and Keplerian Element Data

This shows tracking and keplerian element data for the satellite.

Feedback or suggestion? Click here.




ElementValue
Catalog62742
NameSTARLINK-32775
Epoch Orbit221
Epoch Day35.25001157
Epoch Year2025
RAAN253.8607
Inclination42.9996
Eccentricity0.0001488
Argument of Perigee269.177
Mean Anonmoly101.9352
Mean Motion15.64341117
Decay Rate-0.01477168
L11 62742U 25014H 25035.25001157 -.01477168 00000+0 -16768-1 0 9993
L22 62742 42.9996 253.8607 0001488 269.1770 101.9352 15.64341117 2215



Live tracking and technical data element details for STARLINK-32775 (NORAD 62742). STARLINK-32775 can be tracked NOW for your location showing map with azimuth and elevation plus other details from your city location.







IsCatalogInMostPopularTable: catalog: 62742, numindb: 224
Update: records affected: 1



GetName: 62742 STARLINK-32775

Hit Count: updated at: Sat, 06 Dec 2025 12:39:17 GMT